Location: Ward Pound Ridge Reservation
(41.2500°N, 73.6000°W)
Time: 13:53:17
(UTC-05:00)

Vanguard 3 - All Passes

Search period start: 16 December 2017 00:00
Search period end: 26 December 2017 00:00
Orbit: 509 x 3263 km, 33.3° (Epoch: 15 December)

Date Brightness Start Highest point End Pass type
(mag) Time Alt. Az. Time Alt. Az. Time Alt. Az.
16 Dec - 10:12:29 10° SSW 10:16:27 17° SSE 10:19:33 10° SE daylight
16 Dec - 12:23:47 10° SW 12:27:43 26° S 12:30:55 10° ESE daylight
16 Dec - 14:35:39 10° WSW 14:38:31 21° S 14:41:31 10° SE daylight
17 Dec - 08:59:17 10° S 09:02:46 13° SSE 09:05:37 10° SE daylight
17 Dec - 11:09:42 10° SW 11:14:28 25° S 11:17:58 10° ESE daylight
17 Dec - 13:21:55 10° WSW 13:25:27 26° S 13:28:35 10° SE daylight
17 Dec - 15:34:33 10° SW 15:36:15 13° SSW 15:38:03 10° S daylight
18 Dec - 09:55:25 10° SW 10:01:00 22° SSE 10:04:57 10° ESE daylight
18 Dec - 12:07:49 10° WSW 12:12:20 30° S 12:15:46 10° ESE daylight
18 Dec - 14:20:23 10° WSW 14:23:07 19° SSW 14:25:48 10° SSE daylight
19 Dec - 08:41:15 10° SSW 08:47:13 19° SSE 08:51:33 10° ESE daylight
19 Dec - 10:53:17 10° SW 10:59:03 30° S 11:03:00 10° ESE daylight
19 Dec - 13:06:16 10° WSW 13:10:04 26° S 13:13:14 10° SE daylight
20 Dec - 07:27:46 10° S 07:33:07 15° SSE 07:37:19 10° SE daylight
20 Dec - 09:38:27 10° SW 09:45:31 28° S 09:50:08 10° ESE daylight
20 Dec - 11:51:46 10° WSW 11:56:57 33° S 12:00:37 10° ESE daylight
20 Dec - 14:05:04 10° WSW 14:07:40 16° SSW 14:10:05 10° SSE daylight
21 Dec - 06:17:40 10° SSE 06:18:40 10° SSE 06:19:37 10° SSE visible
21 Dec - 08:23:36 10° SSW 08:31:37 25° SSE 08:36:59 10° ESE daylight
21 Dec - 10:36:48 10° WSW 10:43:36 36° S 10:47:58 10° ESE daylight
21 Dec - 12:50:30 10° WSW 12:54:39 26° SSW 12:57:55 10° SE daylight
22 Dec - 07:09:12 10° SSW 07:17:23 20° SSE 07:23:13 10° ESE daylight
22 Dec - 09:21:30 10° SW 09:29:57 34° S 09:35:12 10° ESE daylight
22 Dec - 11:35:37 10° WSW 11:41:31 35° S 11:45:29 10° ESE daylight
22 Dec - 13:49:43 10° WSW 13:52:09 15° SSW 13:54:22 10° SSE daylight
23 Dec - 05:56:00 10° S 06:02:47 15° SSE 06:08:12 10° ESE visible
23 Dec - 08:06:06 10° SW 08:15:57 31° SSE 08:22:09 10° ESE daylight
23 Dec - 10:20:16 10° WSW 10:28:06 40° S 10:32:54 10° ESE daylight
23 Dec - 12:34:37 10° WSW 12:39:12 26° SSW 12:42:35 10° SE daylight
24 Dec - 06:51:02 10° SSW 07:01:33 26° SSE 07:08:36 10° ESE visible
24 Dec - 09:04:31 10° WSW 09:14:20 40° S 09:20:10 10° ESE daylight
24 Dec - 11:19:22 10° WSW 11:26:02 37° S 11:30:19 10° ESE daylight
24 Dec - 13:34:18 10° WSW 13:36:35 13° SSW 13:38:37 10° S daylight
25 Dec - 05:36:53 10° S 05:46:47 20° SSE 05:54:08 10° ESE visible
25 Dec - 07:48:39 10° SW 08:00:11 37° SSE 08:07:09 10° ESE daylight
25 Dec - 10:03:38 10° WSW 10:12:33 45° S 10:17:48 10° ESE daylight
25 Dec - 12:18:38 10° WSW 12:23:39 26° SSW 12:27:17 10° SE daylight
